FORMOSAT-5

Last updated on Sat Sep 12 2026 00:02:46 GMT+0000 (Coordinated Universal Time)

1 42920U 17049A 26254.53270451 .00000082 00000+0 31875-4 0 9991 2 42920 98.2193 327.8966 0011638 171.6663 188.4728 14.50907000479195
UTC large
Height (km)
Speed (km/s)
/
Latitude / Longitude
Inclination (degrees)
Orbital Period (minutes)
Azimuth
Elevation
Range (km)
Doppler Factor

Next 0 passes for location: London (51.5072 / 0.1276)

No passes found over London.
FORMOSAT-5